METEOSAT 1

导读

METEOSAT 1(气象卫星1号)是欧洲空间局(ESA)于1977年11月23日发射的欧洲第一代静止气象卫星首发星,定点于东经0°赤道上空。作为欧洲首颗地球同步轨道气象卫星,它搭载可见光和红外成像仪,首次实现同步轨道水汽通道成像,每25分钟完成一次地球全圆盘成像,为欧洲及覆盖区域提供气象观测服务,开启了欧洲静止气象卫星业务化观测历程,是全球气象卫星观测网的重要开端。

基本信息
目录编号:
10489
目录名称:
METEOSAT 1
国际标识:
1977-108A
轨道中心:
EARTH
卫星名称:
METEOSAT 1
卫星全名:
--
卫星状态:
在轨 (已飞行17824 天)
发射日期:
1977-11-23 UTC
国别 :
(ESA)
星等 :
--
轨道信息
数据来源 国际轨道数据
星历时间: 2026-09-10T10:16:47+0800
1天前
查看轨道信息
半长轴: 42136.102km
偏心率: 0.0007535
轨道倾角: 4.868°
近地点辐角 100.463°
升交点赤经 280.221°
平近点角 55.240°
近地点: 35726.215km
远地点: 35789.715km
周期: 1434.634分钟
每日圈数: 1.00374
详细信息
使用方式:
暂无
2D轨道图
3D轨道图
轨道高度分析图
轨道倾角分析图
轨道综合分析图
查看轨道综合分析图
与全量物体交会距离演化趋势
与全量物体交会风险概率演化趋势